Nantucket, MA

6:25 AM EDT on August 17, 2017 (GMT -0400)
Nantucket Memorial

Weather History for KACK - April, 2013

Change the Weather History Date:

Tuesday, April 16, 2013

  Actual Average Record
Temperature  
Mean Temperature 46 °F -  
Max Temperature 53 °F 51 °F 60 °F (1976)
Min Temperature 39 °F 36 °F 29 °F (1978)
Degree Days  
Heating Degree Days 19    
Moisture  
Dew Point 41 °F    
Average Humidity 82    
Maximum Humidity 93    
Minimum Humidity 66    
Precipitation  
Precipitation 0.00 in - - ()
Sea Level Pressure  
Sea Level Pressure 30.35 in    
Wind  
Wind Speed 11 mph (SSE)    
Max Wind Speed 20 mph    
Max Gust Speed -    
Visibility 10 miles    
Events      
Averages and records for this station are not official NWS values.
T = Trace of Precipitation, MM = Missing Value Source: NWS Daily Summary

Daily Weather History Graph

Daily Weather History Graph

Search for Another Location

Airport or City:

Trip Planner

Search our weather history database for the weather conditions in past years. The results will help you decide how hot, cold, wet, or windy it might be!

Date:

Astronomy

Apr. 16, 2013 Rise Set
Actual Time 5:58 AM EDT 7:21 PM EDT
Civil Twilight 5:30 AM EDT 7:50 PM EDT
Nautical Twilight 4:55 AM EDT 8:25 PM EDT
Astronomical Twilight 4:19 AM EDT 9:01 PM EDT
Moon 10:12 AM EDT (4/16) 12:18 AM EDT (4/16)
Length of Visible Light 14h 20m
Length of Day
13h 22m
Waxing Crescent, 33% of the Moon is Illuminated
Apr 16
Waxing Crescent
Apr 18
First Quarter
Apr 25
Full
May 2
Last Quarter
May 9
New

Hourly Weather History & Observations

Time (EDT) Temp. Windchill Dew Point Humidity Pressure Visibility Wind Dir Wind Speed Gust Speed Precip Events Conditions
12:13 AM 42.8 °F 37.5 °F 39.2 °F 87% 30.41 in 10.0 mi SE 9.2 mph - N/A   Mostly Cloudy
12:45 AM 42.8 °F 36.6 °F 39.2 °F 87% 30.41 in 10.0 mi SE 11.5 mph - N/A   Scattered Clouds
12:53 AM 43.0 °F 37.2 °F 39.9 °F 89% 30.41 in 10.0 mi SE 10.4 mph - N/A   Scattered Clouds
1:53 AM 42.1 °F 37.7 °F 39.9 °F 92% 30.41 in 10.0 mi SSE 6.9 mph - N/A   Partly Cloudy
2:53 AM 41.0 °F 37.1 °F 39.0 °F 93% 30.42 in 10.0 mi SSE 5.8 mph - N/A   Partly Cloudy
3:28 AM 41.0 °F 37.1 °F 39.2 °F 93% 30.42 in 10.0 mi SSE 5.8 mph - N/A   Mostly Cloudy
3:53 AM 42.1 °F 38.4 °F 39.0 °F 89% 30.42 in 10.0 mi SSE 5.8 mph - N/A   Mostly Cloudy
4:53 AM 41.0 °F 37.1 °F 39.0 °F 93% 30.43 in 10.0 mi SSE 5.8 mph - N/A   Mostly Cloudy
5:14 AM 39.2 °F 34.2 °F 37.4 °F 93% 30.43 in 10.0 mi SE 6.9 mph - N/A   Scattered Clouds
5:53 AM 39.0 °F 34.8 °F 37.0 °F 93% 30.43 in 10.0 mi SE 5.8 mph - N/A   Clear
6:53 AM 43.0 °F 39.5 °F 39.9 °F 89% 30.44 in 10.0 mi SE 5.8 mph - N/A   Clear
8:53 AM 46.9 °F - 42.1 °F 83% 30.44 in 10.0 mi SE 11.5 mph - N/A   Clear
9:53 AM 48.0 °F - 41.0 °F 77% 30.43 in 10.0 mi SE 12.7 mph - N/A   Clear
10:53 AM 50.0 °F - 42.1 °F 74% 30.43 in 10.0 mi SSE 12.7 mph - N/A   Clear
11:53 AM 51.1 °F - 42.1 °F 71% 30.41 in 10.0 mi SSE 12.7 mph - N/A   Clear
12:53 PM 52.0 °F - 42.1 °F 69% 30.38 in 10.0 mi SSE 13.8 mph - N/A   Clear
1:53 PM 51.1 °F - 42.1 °F 71% 30.36 in 10.0 mi South 15.0 mph - N/A   Clear
2:53 PM 53.1 °F - 42.1 °F 66% 30.33 in 10.0 mi South 15.0 mph - N/A   Clear
3:53 PM 52.0 °F - 42.1 °F 69% 30.32 in 10.0 mi South 15.0 mph - N/A   Clear
4:53 PM 51.1 °F - 43.0 °F 74% 30.31 in 10.0 mi South 13.8 mph - N/A   Clear
5:53 PM 50.0 °F - 43.0 °F 77% 30.27 in 10.0 mi South 15.0 mph - N/A   Clear
6:53 PM 48.9 °F - 42.1 °F 77% 30.23 in 10.0 mi South 18.4 mph - N/A   Clear
7:53 PM 48.9 °F - 41.0 °F 74% 30.21 in 10.0 mi South 16.1 mph - N/A   Clear
8:53 PM 50.0 °F - 43.0 °F 77% 30.20 in 10.0 mi South 18.4 mph - N/A   Clear
9:53 PM 48.9 °F - 45.0 °F 86% 30.20 in 10.0 mi South 16.1 mph - N/A   Clear
10:53 PM 48.9 °F - 46.0 °F 90% 30.18 in 8.0 mi SSW 15.0 mph - N/A   Clear
11:53 PM 50.0 °F - 46.9 °F 89% 30.17 in 7.0 mi SSW 19.6 mph - N/A   Mostly Cloudy